sat.trackr.live / text

‹ back to catalog

STARLINK-6366

NORAD 57380 · 2023-099BE

PAYLOAD ACTIVE UNKNOWN

§ Identity

Operator
Country
US
Launch date
2023-07-16
Launch site
AFETR
Launch vehicle
Mass (kg)
RCS (m²)

Purposes: comms

External: N2YO · Heavens-Above · Gunter

§ Orbital elements

Epoch: 2026-05-24T23:27:38.953152Z

Period
94.27 min
Inclination
43.0029°
Eccentricity
0.0001273
Mean motion
15.27575507 rev/d
Perigee alt
482.2 km
Apogee alt
483.9 km
Semi-major
6,861.2 km
B*
1.2263e-5
RAAN
141.6655°
Arg perigee
300.2465°
Mean anomaly
59.8260°
Rev number
15,893

§ Raw data

STARLINK-63661 57380U 23099BE  26144.97753418  .00000075  00000+0  12263-4 0  99962 57380  43.0029 141.6655 0001273 300.2465  59.8260 15.27575507158934

JSON: /api/v1/satellites/57380 · /tle

For live sub-satellite position, see the globe view (requires WebGL).

§ Visibility from observer

Set your observer location to see the next 7 days of passes ≥ 10°. The values pass through the URL so the page stays shareable.

No JS? Fill the form by hand. The geolocation button needs JavaScript.